Dewpoint
70 71 72 73 73 73 72 72 72 72 73 73 74 74 74 74 74 74 74 74 75 75 75 74 73 72 72 70 71 71 71 72 71 73 72 72 72 72 71 72 72 70 71
70 72 72 73 73 73 73 72 72 72 73 73 73 74 74 74 74 74 74 74 75 75 74 74 73 72 71 70 71 71 71 71 71 71 72 71 72 71 71 72 71 70 72
69 72 72 72 73 73 73 73 73 73 73 73 73 73 73 74 74 74 74 74 74 74 74 73 72 72 72 72 70 70 70 70 71 71 72 70 69 71 71 71 71 71 71
70 71 72 72 72 72 72 72 73 73 73 73 73 73 73 73 74 74 74 74 74 74 73 72 72 72 72 72 70 70 70 70 70 70 69 69 69 70 69 70 71 71 71
69 71 71 72 72 72 72 72 72 73 73 73 72 73 73 73 73 73 73 73 74 74 73 72 72 73 72 71 70 70 70 70 70 69 68 67 67 68 68 70 71 71 71
69 70 70 70 71 72 72 72 72 72 72 72 72 72 73 73 73 73 72 73 74 74 73 73 74 72 71 70 70 69 69 69 68 67 66 67 66 67 69 70 70 71 70
68 69 70 70 71 72 72 72 72 72 71 72 72 72 72 73 73 72 72 73 74 74 74 73 73 71 70 70 69 69 69 69 67 65 65 67 66 68 68 70 69 70 70
68 69 70 70 71 71 72 71 71 71 71 71 71 72 72 72 72 72 72 72 73 73 72 72 71 70 70 69 69 68 68 68 66 65 65 65 67 68 68 70 70 70 70
69 69 69 70 71 70 70 70 70 70 70 70 71 71 71 71 70 71 71 71 72 72 71 71 71 70 69 69 68 67 67 68 66 65 64 63 64 69 69 71 70 70 70
68 68 68 68 69 69 70 69 69 69 70 70 70 70 70 70 70 70 70 70 71 71 71 71 70 70 69 68 68 67 67 67 66 65 64 65 66 69 70 71 70 70 70
68 67 67 67 68 68 69 70 70 70 70 69 70 69 69 70 70 70 69 69 70 70 70 70 70 69 68 67 67 67 67 66 66 66 65 66 66 69 69 70 70 70 70
67 67 67 67 67 67 69 69 69 69 70 69 69 69 70 69 69 70 69 68 69 69 69 69 69 68 68 67 66 67 66 66 65 65 65 66 67 67 68 70 70 70 70
65 68 68 67 67 67 67 67 68 70 69 70 70 70 69 69 69 70 69 69 69 69 69 69 68 69 67 66 66 66 65 65 65 65 65 65 67 68 69 70 70 70 69
32 41 65 67 67 66 67 67 67 68 68 68 69 69 69 68 68 68 69 68 68 69 69 69 69 69 68 67 66 65 65 65 65 65 64 65 67 69 70 70 70 70 70
55 62 67 69 67 67 66 67 66 67 68 68 68 69 69 68 67 68 68 68 67 67 68 68 68 68 67 67 66 65 65 65 65 65 64 64 65 67 69 68 69 69 70
54 56 57 60 65 68 67 67 67 67 67 67 67 67 69 69 68 68 68 68 67 67 67 67 67 67 67 67 66 65 65 65 65 65 64 64 63 64 66 67 69 70 69
53 54 54 54 54 56 58 60 61 65 67 67 67 68 67 68 68 67 67 67 67 68 67 67 67 67 67 66 65 65 65 65 65 64 64 64 63 62 63 66 68 69 69
51 50 50 50 51 51 52 55 57 57 59 61 64 65 66 67 68 66 66 66 67 66 67 66 67 66 66 65 65 65 65 65 65 64 64 64 63 63 62 63 65 67 68
47 46 46 47 47 48 48 50 51 52 53 56 58 61 61 63 64 63 62 66 65 65 66 66 66 66 65 65 65 65 64 64 64 64 64 63 63 62 61 62 62 63 65
44 44 44 44 44 45 46 46 48 47 48 51 54 54 57 57 59 62 61 61 62 64 64 65 65 65 65 65 64 63 63 64 64 64 64 64 63 62 61 61 61 62 62
42 42 42 42 42 42 43 43 45 43 45 46 50 49 53 51 52 54 59 60 63 62 62 64 65 64 63 62 61 61 60 61 62 63 64 63 62 62 61 61 60 61 62
39 40 39 40 39 40 41 42 42 42 45 45 44 45 48 46 49 50 52 56 59 60 63 63 64 63 63 63 61 59 58 59 60 61 62 62 62 62 61 60 60 59 61
36 37 37 36 36 37 38 38 38 40 40 42 39 40 42 43 45 47 49 51 53 56 58 60 63 62 61 62 63 59 55 55 56 59 61 62 61 62 62 61 60 59 59
36 35 34 35 34 34 35 36 36 37 36 38 38 38 39 40 42 45 47 49 50 52 54 56 60 62 61 58 62 62 61 58 55 53 59 61 61 61 62 62 61 60 60
35 33 33 33 33 33 33 33 34 34 35 36 36 36 37 39 40 41 44 46 47 49 51 54 56 59 63 60 60 59 59 59 57 54 53 57 60 61 62 62 62 61 60
34 32 31 32 31 31 31 31 32 32 32 33 34 35 36 38 39 40 41 42 43 45 47 49 53 55 60 62 60 59 58 56 56 55 54 54 57 59 61 61 61 61 61
Lifted_Index
-5 -5 -6 -6 -6 -6 -5 -4 -4 -4 -5 -5 -5 -6 -6 -6 -6 -6 -6 -6 -6 -6 -6 -5 -5 -4 -3 -2 -2 -2 -2 -3 -3 -4 -4 -4 -4 -4 -4 -5 -5 -5 -5
-5 -5 -6 -6 -6 -6 -5 -5 -4 -4 -5 -5 -5 -6 -6 -6 -6 -6 -6 -6 -6 -6 -6 -5 -5 -4 -3 -2 -2 -2 -2 -3 -3 -4 -4 -4 -4 -4 -5 -5 -5 -5 -5
-5 -6 -6 -6 -6 -6 -5 -5 -5 -5 -5 -5 -5 -6 -6 -6 -6 -6 -6 -6 -6 -6 -5 -5 -5 -4 -4 -3 -2 -2 -2 -2 -3 -3 -3 -4 -4 -4 -4 -5 -5 -5 -5
-5 -5 -5 -5 -5 -5 -5 -5 -5 -5 -5 -5 -5 -5 -6 -6 -6 -6 -6 -6 -6 -6 -5 -5 -4 -4 -4 -3 -2 -2 -2 -2 -3 -3 -3 -3 -3 -3 -3 -4 -5 -5 -5
-5 -5 -5 -5 -5 -5 -5 -5 -6 -6 -5 -5 -5 -5 -6 -6 -6 -6 -6 -6 -6 -6 -5 -5 -5 -4 -4 -3 -3 -2 -2 -2 -2 -2 -2 -2 -2 -2 -3 -4 -5 -5 -5
-5 -5 -5 -5 -5 -5 -5 -5 -6 -6 -5 -5 -5 -5 -5 -6 -6 -6 -6 -6 -6 -6 -6 -5 -5 -4 -4 -3 -3 -2 -2 -2 -2 -2 -2 -1 -1 -2 -3 -4 -4 -5 -5
-5 -5 -5 -5 -5 -6 -6 -5 -5 -5 -5 -5 -5 -5 -5 -6 -6 -5 -5 -6 -6 -6 -6 -6 -5 -4 -4 -3 -2 -2 -2 -2 -2 -1 -1 -1 -1 -2 -3 -3 -4 -4 -4
-6 -6 -6 -5 -5 -6 -6 -6 -5 -5 -5 -5 -5 -5 -5 -5 -5 -5 -5 -6 -6 -6 -6 -5 -5 -4 -3 -3 -2 -2 -2 -2 -2 -1 -1 -1 -1 -2 -3 -4 -3 -4 -4
-6 -6 -6 -6 -5 -5 -5 -6 -5 -5 -5 -5 -5 -5 -5 -5 -5 -5 -5 -5 -6 -6 -5 -5 -5 -4 -3 -2 -2 -2 -2 -2 -2 -2 -1 -1 -2 -3 -4 -4 -4 -4 -4
-6 -6 -6 -6 -5 -5 -5 -5 -5 -5 -5 -5 -5 -5 -5 -5 -5 -5 -5 -5 -6 -6 -5 -5 -5 -4 -3 -3 -2 -2 -2 -2 -2 -2 -1 -1 -2 -3 -4 -4 -4 -4 -4
-6 -6 -6 -6 -6 -5 -5 -5 -5 -6 -6 -6 -5 -5 -5 -5 -5 -5 -5 -5 -6 -6 -6 -6 -5 -4 -4 -3 -2 -2 -2 -2 -2 -2 -2 -1 -2 -3 -4 -5 -5 -4 -4
-6 -6 -6 -6 -6 -6 -6 -5 -5 -6 -6 -6 -6 -5 -5 -5 -5 -5 -5 -5 -6 -6 -6 -6 -6 -5 -4 -3 -3 -2 -2 -2 -2 -2 -2 -2 -2 -3 -4 -5 -5 -5 -5
-2 -3 -5 -5 -6 -6 -6 -6 -5 -5 -6 -6 -6 -6 -6 -6 -6 -6 -5 -5 -6 -6 -6 -6 -6 -5 -5 -4 -3 -2 -2 -2 -2 -2 -2 -2 -2 -3 -4 -5 -5 -5 -5
2 0 -3 -5 -6 -6 -6 -6 -5 -5 -5 -6 -6 -6 -6 -6 -6 -6 -6 -6 -6 -6 -6 -6 -6 -6 -5 -4 -3 -3 -3 -3 -3 -2 -2 -2 -3 -4 -5 -5 -5 -5 -5
3 1 -2 -5 -6 -6 -6 -6 -5 -5 -5 -5 -6 -6 -6 -6 -6 -6 -6 -6 -6 -6 -6 -6 -6 -6 -6 -5 -4 -3 -3 -3 -3 -3 -3 -2 -3 -3 -4 -4 -5 -5 -5
2 1 -2 -4 -5 -5 -5 -5 -4 -4 -4 -4 -4 -5 -6 -6 -6 -6 -5 -6 -6 -6 -6 -6 -6 -6 -6 -6 -5 -4 -3 -3 -4 -3 -3 -3 -3 -2 -2 -3 -4 -5 -5
3 1 -1 -2 -3 -3 -3 -4 -4 -4 -4 -3 -3 -4 -4 -4 -5 -5 -5 -5 -6 -6 -6 -6 -6 -7 -7 -6 -6 -5 -4 -4 -4 -4 -3 -3 -3 -2 -2 -2 -3 -4 -4
3 2 1 -1 -1 -2 -2 -2 -2 -2 -2 -2 -2 -2 -3 -3 -3 -4 -4 -5 -5 -6 -6 -6 -7 -7 -7 -7 -6 -5 -4 -4 -4 -4 -4 -4 -3 -3 -2 -2 -2 -3 -3
5 4 3 2 1 1 1 1 1 1 0 -0 -0 -1 -1 -1 -2 -2 -3 -3 -3 -4 -5 -6 -6 -6 -6 -6 -6 -5 -5 -4 -4 -4 -4 -4 -4 -3 -3 -2 -2 -2 -2
6 5 4 4 4 4 4 5 5 5 4 3 2 1 1 0 -0 -1 -1 -1 -0 -1 -3 -4 -4 -5 -5 -5 -4 -4 -4 -4 -4 -4 -4 -4 -4 -3 -3 -2 -2 -2 -2
5 5 5 4 4 5 5 6 7 7 7 6 5 4 3 2 2 1 0 0 1 1 -1 -2 -3 -3 -4 -4 -3 -3 -3 -3 -3 -4 -4 -4 -4 -3 -3 -2 -2 -2 -1
4 4 4 4 4 5 5 6 7 7 7 7 7 7 7 6 5 4 2 1 1 1 0 -1 -2 -2 -3 -3 -2 -2 -1 -2 -2 -3 -4 -4 -4 -3 -3 -2 -2 -2 -1
2 3 4 4 5 5 6 6 7 7 7 8 8 9 9 8 7 7 6 4 3 1 0 -1 -1 -2 -1 -1 -1 -1 -0 -0 -1 -1 -3 -4 -4 -4 -3 -2 -2 -2 -2
3 4 5 6 7 7 7 7 6 7 7 8 9 9 10 10 9 8 8 7 6 4 2 1 -0 -1 -1 -1 -1 -0 0 1 1 1 -0 -2 -3 -3 -3 -3 -2 -2 -2
6 7 8 8 9 8 8 8 7 7 8 9 10 10 10 10 10 9 9 9 8 7 5 4 2 0 -1 -1 -1 -0 -0 1 1 1 1 0 -1 -2 -3 -3 -2 -2 -2
8 8 9 10 10 9 9 9 8 8 9 9 9 10 10 11 10 10 9 9 9 9 8 7 4 2 -0 -1 -1 -1 -0 0 1 1 2 1 -0 -1 -2 -2 -3 -2 -2